TECHEDSAT 5

Last updated on Sun Jul 30 2017 00:15:06 GMT+0000 (Coordinated Universal Time)

1 42066U 98067LB 17209.88343381 .08994048 12072-4 17432-2 0 9992 2 42066 51.6145 172.1074 0006271 221.2784 138.7765 16.30922023 22443

Satellite not in orbit

TECHEDSAT 5